SCP
0 0 0 0 0 0 0 0 0 0 0 0 0 0 0 0 0 0 0 0 0 0 0 0 0 0 0 0 0 0 0 0 0 0 0 0 0 0
0 0 0 0 0 0 0 0 0 0 0 0 0 0 0 0 0 0 0 0 0 0 0 0 0 0 0 0 0 0 0 0 0 0 0 0 0 0
0 0 0 0 0 0 0 0 0 0 0 0 0 0 0 0 0 0 0 0 0 0 0 0 0 0 0 0 0 0 0 0 0 0 0 0 0 0
0 0 0 0 0 0 0 0 0 0 0 0 0 0 0 0 0 0 0 0 0 0 0 0 0 0 0 0 0 0 0 0 0 0 0 0 0 0
0 0 0 0 0 0 0 0 0 0 0 0 0 0 0 0 0 0 0 0 0 0 0 0 0 0 0 0 0 0 0 0 0 0 0 0 0 0
0 0 0 0 0 0 0 0 0 0 0 0 0 0 0 0 0 0 0 0 0 0 0 0 0 0 0 0 0 0 0 0 0 0 0 0 0 0
0 0 0 0 0 0 0 0 0 0 0 0 0 0 0 0 0 0 0 0 0 0 0 0 0 0 0 0 0 0 0 0 0 0 0 0 0 0
0 0 0 0 0 0 0 0 0 0 0 0 0 0 0 0 0 0 0 0 0 0 0 0 0 0 0 0 0 0 0 0 0 0 0 0 0 0
0 0 0 0 0 0 0 0 0 0 0 0 0 0 0 0 0 0 0 0 0 0 0 0 0 0 0 0 0 0 0 0 0 0 0 0 0 0
0 0 0 0 0 0 0 0 0 0 0 0 0 0 0 0 0 0 0 0 0 0 0 0 0 0 0 0 0 0 0 0 0 0 0 0 0 0
0 0 0 0 0 0 0 0 0 0 0 0 0 0 0 0 0 0 0 0 0 0 0 0 0 0 0 0 0 0 0 0 0 0 0 0 0 0
0 0 0 0 0 0 0 0 0 0 0 0 0 0 0 0 0 0 0 0 0 0 0 0 0 0 0 0 0 0 0 0 0 0 0 0 0 0
0 0 0 0 0 0 0 0 0 0 0 0 0 0 0 0 0 0 0 0 0 0 0 0 0 0 0 0 0 0 0 0 0 0 0 0 0 0
0 0 0 0 0 0 0 0 0 0 0 0 0 0 0 0 0 0 0 0 0 0 0 0 0 0 0 0 0 0 0 0 0 0 0 0 0 0
0 0 0 0 -0 0 0 0 0 0 0 0 0 0 0 0 0 0 0 0 0 0 0 0 0 0 0 0 0 0 0 0 0 0 0 0 0 0
0 0 0 0 0 0 0 0 0 0 0 0 0 0 0 0 0 0 0 0 0 0 0 0 0 0 0 0 0 0 0 0 0 0 0 0 0 0
0 0 0 0 0 0 0 0 0 0 0 0 0 0 0 0 0 0 0 0 0 0 0 0 0 0 0 0 0 0 0 0 0 0 0 0 0 0
0 0 0 0 0 0 0 0 0 0 0 0 0 0 0 0 0 0 0 0 0 0 0 0 0 0 0 0 0 0 0 0 0 0 0 0 0 0
0 0 0 0 0 0 0 0 0 0 0 0 0 0 0 0 0 0 0 0 0 0 0 0 0 0 0 0 0 0 0 0 0 0 0 0 0 0
0 0 0 0 0 0 0 0 0 0 0 0 0 0 0 0 0 0 0 0 0 0 0 0 0 0 0 0 0 0 0 0 0 0 0 0 0 -0
0 0 0 0 0 0 0 0 0 0 0 0 0 0 0 0 0 0 0 0 0 0 0 0 0 0 0 0 0 0 0 0 0 0 0 0 0 0
0 0 0 0 0 0 0 0 0 0 0 0 0 0 0 0 0 0 0 0 0 0 0 0 0 0 0 0 0 0 0 0 0 -0 -0 -0 0 0
0 0 0 0 0 0 0 0 0 0 0 0 0 0 0 0 0 0 0 0 0 0 0 0 0 0 0 0 0 0 0 0 0 0 0 -0 -0 -0
Wind_Speed_500mb
111 111 114 111 107 102 93 89 81 55 69 66 63 66 68 66 64 56 54 52 46 41 39 35 34 33 34 36 36 34 35 34 30 25 24 24 24 24
111 113 116 116 115 109 104 99 91 78 67 74 74 69 67 69 66 62 63 58 50 46 41 38 36 35 36 36 35 35 36 33 30 26 24 25 25 26
103 111 116 116 119 117 113 109 101 91 79 65 70 66 70 72 71 70 67 62 55 50 46 42 39 38 38 38 38 38 36 31 28 27 28 28 28 29
90 99 113 116 118 119 119 117 113 103 94 82 78 75 74 74 75 70 70 66 60 55 50 45 42 40 40 39 39 36 31 31 31 32 31 29 29 33
88 91 103 109 119 121 122 121 117 112 101 98 91 86 79 77 79 79 75 71 67 61 54 49 44 44 41 41 39 35 35 35 32 28 27 28 30 32
84 93 96 103 111 117 121 124 120 117 111 106 103 94 89 86 86 85 82 77 70 66 61 52 48 45 41 41 40 36 35 32 28 27 27 26 26 26
86 90 97 98 105 109 115 124 123 121 120 115 114 107 101 98 95 92 89 76 71 72 63 57 52 46 44 40 40 37 35 33 29 27 28 27 25 28
85 89 93 95 100 105 110 113 119 126 128 126 125 124 119 111 100 94 85 81 74 72 66 60 53 49 45 39 37 39 37 35 34 33 31 31 32 35
84 87 90 95 96 96 103 110 118 126 123 124 126 132 127 125 109 100 92 86 79 67 61 58 53 48 45 39 40 40 39 38 38 36 36 38 39 40
83 89 91 92 97 92 91 98 113 119 126 126 123 117 122 121 113 106 98 89 75 68 64 58 54 52 49 43 44 45 44 45 45 39 40 40 42 45
85 86 91 97 95 91 87 95 98 116 120 119 119 116 116 116 105 100 99 87 80 78 74 68 61 55 53 52 51 49 47 50 47 43 40 42 43 46
94 93 89 91 96 82 89 94 94 108 103 103 104 108 112 111 108 105 102 101 91 77 75 64 56 50 45 54 49 45 45 42 46 45 44 45 41 44
95 94 94 90 86 92 92 99 104 99 95 88 96 97 108 111 108 105 100 92 93 83 67 65 51 45 46 38 37 33 39 44 48 46 47 47 39 47
87 88 88 84 84 82 81 95 90 80 91 95 100 104 108 108 106 102 94 89 86 79 70 58 49 50 50 46 42 40 38 42 46 50 51 43 51 51
89 87 83 80 77 78 80 89 92 90 100 100 106 107 104 106 103 96 90 87 78 73 62 53 53 52 49 47 45 42 44 45 48 48 47 55 60 58
77 79 83 80 84 84 79 72 85 101 101 99 90 85 86 94 102 100 95 85 76 66 56 53 53 51 51 47 52 50 49 49 49 52 56 59 60 65
56 55 73 73 82 78 79 77 73 89 98 90 83 86 91 95 93 92 88 82 73 65 62 59 55 51 46 49 53 52 50 53 52 52 51 61 68 69
65 66 64 72 76 78 78 78 75 81 93 90 89 90 94 89 87 84 81 78 72 68 64 58 50 44 45 50 51 50 49 50 50 48 58 67 79 75
79 75 68 72 77 76 71 71 75 83 91 92 90 88 90 86 86 92 84 77 73 66 58 52 48 46 44 45 42 41 44 43 48 58 61 70 81 89
77 71 64 71 70 67 62 64 72 80 88 89 85 84 83 84 90 85 85 81 71 60 49 46 43 44 41 37 40 42 45 52 52 62 70 76 88 94
64 63 58 67 64 60 64 71 78 85 86 86 83 79 80 86 84 78 72 63 55 46 41 34 30 29 33 37 46 54 52 49 51 56 67 77 91 105
49 44 51 60 63 60 66 77 80 86 85 79 78 80 78 78 73 65 58 52 45 35 27 26 25 27 33 38 47 55 59 61 66 71 65 60 70 77
24 38 51 58 58 51 62 71 74 76 78 81 76 74 71 66 61 57 52 45 37 31 27 22 21 25 28 34 43 57 69 71 77 86 90 68 62 74
Wind_Direction_500mb
248 247 245 247 245 242 240 240 239 233 235 234 233 234 236 237 239 235 232 230 235 242 246 252 259 266 271 273 275 273 270 270 271 272 276 279 284 289
251 249 247 245 246 245 241 241 240 238 245 243 240 239 236 234 236 231 231 232 233 239 246 254 261 268 270 271 271 268 267 266 264 264 268 273 277 283
253 252 251 249 247 247 245 241 240 237 235 232 239 240 236 234 232 229 231 229 235 238 243 249 256 262 265 268 266 264 264 263 262 264 268 273 279 284
257 254 252 250 249 248 247 245 242 239 235 234 236 236 234 233 234 230 230 230 237 240 244 249 255 260 264 266 265 264 256 254 256 261 272 281 288 290
261 258 255 251 249 248 247 246 244 241 237 237 238 239 236 234 229 227 227 229 237 241 244 248 254 259 263 263 265 260 257 258 263 270 277 281 285 292
263 259 257 254 252 250 248 248 246 243 238 235 237 238 238 235 231 231 226 226 234 238 241 245 250 255 257 259 261 258 258 260 263 266 269 276 282 292
267 261 258 256 256 253 251 249 246 244 240 236 236 235 234 231 233 232 230 229 230 234 237 238 243 248 252 251 257 254 256 260 261 261 264 270 284 294
273 267 261 259 256 256 255 252 250 248 242 238 236 237 237 236 236 237 235 228 222 229 232 237 241 245 245 250 251 248 250 251 251 256 266 280 286 290
273 268 265 262 258 254 255 254 253 253 250 248 243 241 239 238 238 237 234 236 233 230 229 233 236 240 246 249 248 244 247 247 248 260 268 278 286 294
279 273 266 263 259 256 254 253 251 249 247 244 245 246 246 247 242 243 242 236 230 227 224 223 232 237 244 247 252 248 249 246 244 263 275 286 295 299
284 276 270 265 258 255 252 252 249 252 248 244 244 244 243 244 241 236 228 225 223 225 227 229 230 237 245 251 249 252 255 252 244 271 283 291 292 294
286 280 275 269 265 242 240 246 242 245 235 236 230 233 235 238 237 235 233 225 222 222 226 225 228 234 247 250 251 253 254 233 267 278 286 291 297 300
279 276 276 279 273 259 244 242 248 249 234 231 231 227 228 229 229 227 227 226 225 226 229 224 226 231 240 244 242 242 254 264 273 280 291 294 295 309
269 268 271 273 268 262 244 239 236 228 227 226 225 224 226 226 222 221 220 221 223 229 225 221 226 235 243 249 255 260 266 272 279 289 294 288 301 305
268 263 262 263 259 253 248 239 227 221 222 217 217 220 220 223 219 217 218 218 218 217 217 224 232 238 240 249 258 270 279 278 284 291 293 292 296 303
264 259 255 256 255 256 251 242 232 223 218 217 212 210 204 200 212 216 212 209 208 210 216 226 233 234 242 252 261 266 272 274 283 287 290 290 292 303
281 265 259 246 242 237 238 239 230 222 216 213 206 199 195 199 209 211 209 206 206 209 212 221 228 234 242 250 258 266 273 277 279 289 289 294 297 305
266 266 255 234 229 224 222 227 229 219 207 204 199 198 195 203 209 203 207 204 207 208 213 214 223 229 238 248 259 269 273 275 283 291 298 297 300 306
259 254 252 236 227 222 225 222 215 208 201 201 203 206 208 213 207 200 204 207 204 208 208 214 219 227 234 246 264 271 274 275 283 292 295 299 305 309
254 246 249 230 222 220 221 208 200 200 201 207 207 211 212 211 202 201 204 205 204 205 206 211 218 232 242 252 259 267 270 280 290 302 309 309 306 308
235 241 249 222 221 214 212 208 207 204 206 208 209 211 205 202 201 198 198 198 199 199 203 212 225 233 245 261 269 280 289 298 301 299 308 305 308 311
229 250 230 209 206 211 210 208 201 199 202 204 205 203 201 200 197 192 191 191 190 195 206 215 228 248 257 267 279 290 298 305 307 310 308 297 297 291
236 216 206 209 210 216 216 207 205 201 203 202 201 197 195 191 189 187 183 188 195 196 209 226 240 255 268 278 290 299 305 310 317 315 314 310 294 290
Wind_Speed_850mb
111 111 114 111 107 102 93 89 81 55 69 66 63 66 68 66 64 56 54 52 46 41 39 35 34 33 34 36 36 34 35 34 30 25 24 24 24 24
111 113 116 116 115 109 104 99 91 78 67 74 74 69 67 69 66 62 63 58 50 46 41 38 36 35 36 36 35 35 36 33 30 26 24 25 25 26
103 111 116 116 119 117 113 109 101 91 79 65 70 66 70 72 71 70 67 62 55 50 46 42 39 38 38 38 38 38 36 31 28 27 28 28 28 29
90 99 113 116 118 119 119 117 113 103 94 82 78 75 74 74 75 70 70 66 60 55 50 45 42 40 40 39 39 36 31 31 31 32 31 29 29 33
88 91 103 109 119 121 122 121 117 112 101 98 91 86 79 77 79 79 75 71 67 61 54 49 44 44 41 41 39 35 35 35 32 28 27 28 30 32
84 93 96 103 111 117 121 124 120 117 111 106 103 94 89 86 86 85 82 77 70 66 61 52 48 45 41 41 40 36 35 32 28 27 27 26 26 26
86 90 97 98 105 109 115 124 123 121 120 115 114 107 101 98 95 92 89 76 71 72 63 57 52 46 44 40 40 37 35 33 29 27 28 27 25 28
85 89 93 95 100 105 110 113 119 126 128 126 125 124 119 111 100 94 85 81 74 72 66 60 53 49 45 39 37 39 37 35 34 33 31 31 32 35
84 87 90 95 96 96 103 110 118 126 123 124 126 132 127 125 109 100 92 86 79 67 61 58 53 48 45 39 40 40 39 38 38 36 36 38 39 40
83 89 91 92 97 92 91 98 113 119 126 126 123 117 122 121 113 106 98 89 75 68 64 58 54 52 49 43 44 45 44 45 45 39 40 40 42 45
85 86 91 97 95 91 87 95 98 116 120 119 119 116 116 116 105 100 99 87 80 78 74 68 61 55 53 52 51 49 47 50 47 43 40 42 43 46
94 93 89 91 96 82 89 94 94 108 103 103 104 108 112 111 108 105 102 101 91 77 75 64 56 50 45 54 49 45 45 42 46 45 44 45 41 44
95 94 94 90 86 92 92 99 104 99 95 88 96 97 108 111 108 105 100 92 93 83 67 65 51 45 46 38 37 33 39 44 48 46 47 47 39 47
87 88 88 84 84 82 81 95 90 80 91 95 100 104 108 108 106 102 94 89 86 79 70 58 49 50 50 46 42 40 38 42 46 50 51 43 51 51
89 87 83 80 77 78 80 89 92 90 100 100 106 107 104 106 103 96 90 87 78 73 62 53 53 52 49 47 45 42 44 45 48 48 47 55 60 58
77 79 83 80 84 84 79 72 85 101 101 99 90 85 86 94 102 100 95 85 76 66 56 53 53 51 51 47 52 50 49 49 49 52 56 59 60 65
56 55 73 73 82 78 79 77 73 89 98 90 83 86 91 95 93 92 88 82 73 65 62 59 55 51 46 49 53 52 50 53 52 52 51 61 68 69
65 66 64 72 76 78 78 78 75 81 93 90 89 90 94 89 87 84 81 78 72 68 64 58 50 44 45 50 51 50 49 50 50 48 58 67 79 75
79 75 68 72 77 76 71 71 75 83 91 92 90 88 90 86 86 92 84 77 73 66 58 52 48 46 44 45 42 41 44 43 48 58 61 70 81 89
77 71 64 71 70 67 62 64 72 80 88 89 85 84 83 84 90 85 85 81 71 60 49 46 43 44 41 37 40 42 45 52 52 62 70 76 88 94
64 63 58 67 64 60 64 71 78 85 86 86 83 79 80 86 84 78 72 63 55 46 41 34 30 29 33 37 46 54 52 49 51 56 67 77 91 105
49 44 51 60 63 60 66 77 80 86 85 79 78 80 78 78 73 65 58 52 45 35 27 26 25 27 33 38 47 55 59 61 66 71 65 60 70 77
24 38 51 58 58 51 62 71 74 76 78 81 76 74 71 66 61 57 52 45 37 31 27 22 21 25 28 34 43 57 69 71 77 86 90 68 62 74
Wind_Direction_850mb
248 247 245 247 245 242 240 240 239 233 235 234 233 234 236 237 239 235 232 230 235 242 246 252 259 266 271 273 275 273 270 270 271 272 276 279 284 289
251 249 247 245 246 245 241 241 240 238 245 243 240 239 236 234 236 231 231 232 233 239 246 254 261 268 270 271 271 268 267 266 264 264 268 273 277 283
253 252 251 249 247 247 245 241 240 237 235 232 239 240 236 234 232 229 231 229 235 238 243 249 256 262 265 268 266 264 264 263 262 264 268 273 279 284
257 254 252 250 249 248 247 245 242 239 235 234 236 236 234 233 234 230 230 230 237 240 244 249 255 260 264 266 265 264 256 254 256 261 272 281 288 290
261 258 255 251 249 248 247 246 244 241 237 237 238 239 236 234 229 227 227 229 237 241 244 248 254 259 263 263 265 260 257 258 263 270 277 281 285 292
263 259 257 254 252 250 248 248 246 243 238 235 237 238 238 235 231 231 226 226 234 238 241 245 250 255 257 259 261 258 258 260 263 266 269 276 282 292
267 261 258 256 256 253 251 249 246 244 240 236 236 235 234 231 233 232 230 229 230 234 237 238 243 248 252 251 257 254 256 260 261 261 264 270 284 294
273 267 261 259 256 256 255 252 250 248 242 238 236 237 237 236 236 237 235 228 222 229 232 237 241 245 245 250 251 248 250 251 251 256 266 280 286 290
273 268 265 262 258 254 255 254 253 253 250 248 243 241 239 238 238 237 234 236 233 230 229 233 236 240 246 249 248 244 247 247 248 260 268 278 286 294
279 273 266 263 259 256 254 253 251 249 247 244 245 246 246 247 242 243 242 236 230 227 224 223 232 237 244 247 252 248 249 246 244 263 275 286 295 299
284 276 270 265 258 255 252 252 249 252 248 244 244 244 243 244 241 236 228 225 223 225 227 229 230 237 245 251 249 252 255 252 244 271 283 291 292 294
286 280 275 269 265 242 240 246 242 245 235 236 230 233 235 238 237 235 233 225 222 222 226 225 228 234 247 250 251 253 254 233 267 278 286 291 297 300
279 276 276 279 273 259 244 242 248 249 234 231 231 227 228 229 229 227 227 226 225 226 229 224 226 231 240 244 242 242 254 264 273 280 291 294 295 309
269 268 271 273 268 262 244 239 236 228 227 226 225 224 226 226 222 221 220 221 223 229 225 221 226 235 243 249 255 260 266 272 279 289 294 288 301 305
268 263 262 263 259 253 248 239 227 221 222 217 217 220 220 223 219 217 218 218 218 217 217 224 232 238 240 249 258 270 279 278 284 291 293 292 296 303
264 259 255 256 255 256 251 242 232 223 218 217 212 210 204 200 212 216 212 209 208 210 216 226 233 234 242 252 261 266 272 274 283 287 290 290 292 303
281 265 259 246 242 237 238 239 230 222 216 213 206 199 195 199 209 211 209 206 206 209 212 221 228 234 242 250 258 266 273 277 279 289 289 294 297 305
266 266 255 234 229 224 222 227 229 219 207 204 199 198 195 203 209 203 207 204 207 208 213 214 223 229 238 248 259 269 273 275 283 291 298 297 300 306
259 254 252 236 227 222 225 222 215 208 201 201 203 206 208 213 207 200 204 207 204 208 208 214 219 227 234 246 264 271 274 275 283 292 295 299 305 309
254 246 249 230 222 220 221 208 200 200 201 207 207 211 212 211 202 201 204 205 204 205 206 211 218 232 242 252 259 267 270 280 290 302 309 309 306 308
235 241 249 222 221 214 212 208 207 204 206 208 209 211 205 202 201 198 198 198 199 199 203 212 225 233 245 261 269 280 289 298 301 299 308 305 308 311
229 250 230 209 206 211 210 208 201 199 202 204 205 203 201 200 197 192 191 191 190 195 206 215 228 248 257 267 279 290 298 305 307 310 308 297 297 291
236 216 206 209 210 216 216 207 205 201 203 202 201 197 195 191 189 187 183 188 195 196 209 226 240 255 268 278 290 299 305 310 317 315 314 310 294 290